TimeEST,TemperatureF,Dew PointF,Humidity,Sea Level PressureIn,VisibilityMPH,Wind Direction,Wind SpeedMPH,Gust SpeedMPH,PrecipitationIn,Events,Conditions,WindDirDegrees,DateUTC
12:15 AM,59.0,55.4,88,29.74,7.0,South,15.0,-,0.01,,Drizzle,190,2013-11-17 05:15:00
12:35 AM,59.0,55.4,88,29.74,7.0,South,12.7,-,0.01,,Overcast,190,2013-11-17 05:35:00
12:55 AM,59.0,55.4,88,29.71,5.0,South,11.5,-,0.02,Rain,Light Rain,170,2013-11-17 05:55:00
1:15 AM,59.0,55.4,88,29.70,5.0,South,11.5,-,0.04,Rain,Light Rain,190,2013-11-17 06:15:00
1:35 AM,59.0,57.2,94,29.70,7.0,South,16.1,-,0.04,,Drizzle,190,2013-11-17 06:35:00
1:55 AM,59.0,57.2,94,29.69,7.0,South,15.0,20.7,0.04,Rain,Light Rain,190,2013-11-17 06:55:00
2:15 AM,59.0,57.2,94,29.70,10.0,South,18.4,23.0,N/A,,Overcast,190,2013-11-17 07:15:00
2:35 AM,59.0,57.2,94,29.69,10.0,South,15.0,23.0,N/A,,Overcast,190,2013-11-17 07:35:00
2:55 AM,59.0,55.4,88,29.69,10.0,South,13.8,-,N/A,,Mostly Cloudy,180,2013-11-17 07:55:00
3:15 AM,59.0,55.4,88,29.68,10.0,South,15.0,-,N/A,,Mostly Cloudy,180,2013-11-17 08:15:00
3:35 AM,59.0,55.4,88,29.67,10.0,South,13.8,-,N/A,,Mostly Cloudy,180,2013-11-17 08:35:00
3:55 AM,59.0,55.4,88,29.67,10.0,South,11.5,-,N/A,,Overcast,190,2013-11-17 08:55:00
4:15 AM,59.0,53.6,82,29.68,10.0,South,15.0,-,N/A,,Overcast,190,2013-11-17 09:15:00
4:35 AM,57.2,53.6,88,29.68,10.0,South,16.1,-,N/A,,Mostly Cloudy,190,2013-11-17 09:35:00
4:55 AM,57.2,53.6,88,29.68,10.0,South,17.3,24.2,N/A,,Mostly Cloudy,180,2013-11-17 09:55:00
5:15 AM,57.2,53.6,88,29.68,10.0,South,15.0,-,N/A,Rain,Light Rain,180,2013-11-17 10:15:00
5:35 AM,57.2,55.4,94,29.66,10.0,South,16.1,19.6,0.05,Rain,Light Rain,170,2013-11-17 10:35:00
5:55 AM,59.0,55.4,88,29.66,10.0,South,15.0,21.9,0.05,,Overcast,170,2013-11-17 10:55:00
6:15 AM,59.0,55.4,88,29.66,10.0,South,15.0,24.2,N/A,,Overcast,180,2013-11-17 11:15:00
6:35 AM,59.0,55.4,88,29.65,10.0,South,13.8,-,N/A,Rain,Light Rain,170,2013-11-17 11:35:00
6:55 AM,59.0,55.4,88,29.64,10.0,South,16.1,21.9,N/A,,Overcast,170,2013-11-17 11:55:00
7:15 AM,59.0,55.4,88,29.63,10.0,South,16.1,-,N/A,,Overcast,170,2013-11-17 12:15:00
7:35 AM,59.0,55.4,88,29.63,4.0,South,20.7,26.5,0.15,Rain,Heavy Rain,170,2013-11-17 12:35:00
7:55 AM,59.0,55.4,88,29.62,10.0,South,15.0,-,0.16,,Overcast,170,2013-11-17 12:55:00
8:15 AM,59.0,55.4,88,29.62,10.0,South,18.4,23.0,N/A,,Overcast,180,2013-11-17 13:15:00
8:35 AM,59.0,55.4,88,29.61,10.0,South,19.6,-,N/A,,Overcast,170,2013-11-17 13:35:00
8:55 AM,60.8,57.2,88,29.60,10.0,South,19.6,26.5,N/A,,Overcast,180,2013-11-17 13:55:00
9:15 AM,60.8,57.2,88,29.61,10.0,South,23.0,26.5,N/A,,Overcast,180,2013-11-17 14:15:00
9:35 AM,60.8,57.2,88,29.60,10.0,South,23.0,27.6,N/A,,Overcast,180,2013-11-17 14:35:00
9:55 AM,60.8,57.2,88,29.60,10.0,South,24.2,29.9,N/A,,Overcast,180,2013-11-17 14:55:00
10:15 AM,60.8,57.2,88,29.59,10.0,South,20.7,26.5,N/A,,Overcast,180,2013-11-17 15:15:00
10:35 AM,60.8,57.2,88,29.60,10.0,South,21.9,29.9,N/A,,Overcast,190,2013-11-17 15:35:00
10:55 AM,60.8,59.0,94,29.59,10.0,South,20.7,31.1,N/A,,Overcast,190,2013-11-17 15:55:00
11:15 AM,60.8,59.0,94,29.58,5.0,South,25.3,29.9,N/A,,Drizzle,180,2013-11-17 16:15:00
11:35 AM,60.8,59.0,94,29.55,5.0,South,26.5,31.1,N/A,,Light Drizzle,180,2013-11-17 16:35:00
11:55 AM,60.8,59.0,94,29.52,10.0,South,25.3,33.4,N/A,,Overcast,180,2013-11-17 16:55:00
12:15 PM,62.6,59.0,88,29.51,10.0,South,21.9,29.9,N/A,,Overcast,190,2013-11-17 17:15:00
12:35 PM,60.8,59.0,94,29.49,3.0,South,23.0,29.9,0.12,Rain,Light Rain,190,2013-11-17 17:35:00
12:55 PM,62.6,59.0,88,29.46,7.0,South,25.3,31.1,0.12,,Drizzle,180,2013-11-17 17:55:00
1:15 PM,62.6,59.0,88,29.44,10.0,South,25.3,33.4,N/A,,Drizzle,180,2013-11-17 18:15:00
1:35 PM,62.6,59.0,88,29.41,7.0,South,21.9,29.9,N/A,,Overcast,180,2013-11-17 18:35:00
1:55 PM,62.6,60.8,94,29.40,10.0,South,25.3,33.4,N/A,,Overcast,180,2013-11-17 18:55:00
2:15 PM,62.6,60.8,94,29.38,10.0,South,24.2,32.2,N/A,,Overcast,170,2013-11-17 19:15:00
2:35 PM,62.6,60.8,94,29.36,10.0,South,24.2,31.1,N/A,,Overcast,170,2013-11-17 19:35:00
2:55 PM,62.6,60.8,94,29.34,10.0,South,25.3,32.2,N/A,,Overcast,170,2013-11-17 19:55:00
3:15 PM,62.6,60.8,94,29.34,10.0,South,21.9,28.8,0.01,Rain,Rain,190,2013-11-17 20:15:00
3:35 PM,55.4,53.6,94,29.36,10.0,SSW,15.0,-,N/A,Rain,Light Rain,210,2013-11-17 20:35:00
3:55 PM,57.2,53.6,88,29.36,10.0,SW,21.9,28.8,N/A,,Overcast,220,2013-11-17 20:55:00
4:15 PM,59.0,53.6,82,29.36,10.0,SW,27.6,33.4,N/A,,Mostly Cloudy,220,2013-11-17 21:15:00
4:35 PM,59.0,53.6,82,29.40,10.0,WSW,31.1,42.6,N/A,,Mostly Cloudy,250,2013-11-17 21:35:00
4:55 PM,59.0,48.2,67,29.41,10.0,West,35.7,56.4,N/A,,Mostly Cloudy,260,2013-11-17 21:55:00
5:15 PM,55.4,46.4,72,29.44,10.0,West,35.7,49.5,N/A,,Scattered Clouds,260,2013-11-17 22:15:00
5:35 PM,53.6,44.6,72,29.47,10.0,West,25.3,50.6,N/A,,Scattered Clouds,270,2013-11-17 22:35:00
5:55 PM,51.8,42.8,71,29.50,10.0,West,35.7,47.2,N/A,,Scattered Clouds,260,2013-11-17 22:55:00
6:15 PM,51.8,41.0,67,29.52,10.0,West,33.4,47.2,N/A,,Clear,260,2013-11-17 23:15:00
6:35 PM,50.0,41.0,71,29.55,10.0,West,27.6,40.3,N/A,,Scattered Clouds,260,2013-11-17 23:35:00
6:55 PM,50.0,41.0,71,29.57,10.0,West,28.8,44.9,N/A,,Mostly Cloudy,260,2013-11-17 23:55:00
7:15 PM,50.0,41.0,71,29.58,10.0,West,34.5,42.6,N/A,,Mostly Cloudy,260,2013-11-18 00:15:00
7:35 PM,50.0,41.0,71,29.60,10.0,West,26.5,40.3,N/A,,Overcast,260,2013-11-18 00:35:00
7:55 PM,50.0,41.0,71,29.62,10.0,West,31.1,41.4,N/A,,Overcast,260,2013-11-18 00:55:00
8:15 PM,46.4,39.2,76,29.64,10.0,West,25.3,46.0,N/A,,Overcast,270,2013-11-18 01:15:00
8:35 PM,46.4,39.2,76,29.65,10.0,West,20.7,34.5,N/A,,Mostly Cloudy,260,2013-11-18 01:35:00
8:55 PM,46.4,39.2,76,29.66,10.0,West,20.7,33.4,N/A,,Mostly Cloudy,260,2013-11-18 01:55:00
9:15 PM,46.4,39.2,76,29.66,10.0,West,25.3,31.1,N/A,,Mostly Cloudy,260,2013-11-18 02:15:00
9:35 PM,46.4,39.2,76,29.68,10.0,West,19.6,34.5,N/A,,Overcast,270,2013-11-18 02:35:00
9:55 PM,46.4,39.2,76,29.69,10.0,West,18.4,34.5,N/A,,Mostly Cloudy,270,2013-11-18 02:55:00
10:15 PM,46.4,39.2,76,29.70,10.0,West,17.3,27.6,N/A,,Overcast,270,2013-11-18 03:15:00
10:35 PM,46.4,39.2,76,29.71,10.0,West,20.7,28.8,N/A,,Overcast,270,2013-11-18 03:35:00
10:55 PM,46.4,37.4,71,29.73,10.0,West,19.6,28.8,N/A,,Overcast,270,2013-11-18 03:55:00
11:15 PM,44.6,37.4,76,29.74,10.0,West,13.8,27.6,N/A,,Overcast,280,2013-11-18 04:15:00
11:35 PM,44.6,37.4,76,29.74,10.0,West,17.3,26.5,N/A,,Mostly Cloudy,280,2013-11-18 04:35:00
11:55 PM,44.6,37.4,76,29.75,10.0,West,16.1,24.2,N/A,,Mostly Cloudy,280,2013-11-18 04:55:00